When you browse on this site, cookies collect data to enhance your experience and personalize the content and advertising you see.
Visit our Privacy Policy to learn more. By continuing to use the site, you agree to this use of cookies and data.
  • In Österreich
  • Länderverzeichnis
  • Für 7 Tage
  • Wassertemperatur
  • Wetterkarte
  • News
  • Widgets
  • user-avatar
    Anmelden

    Stündliche Wetter Biskira

    Heute, 6 Dezember, Freitag

    Zeit Temperatur Niederschläge Wind Luftdruck Luftfeuchtigkeit
    00:00 +15°C° 0 mm 1 m/S 757 mmHg 60%
    01:00 +14°C° 0 mm 1 m/S 757 mmHg 61%
    02:00 +14°C° 0 mm 1 m/S 757 mmHg 62%
    03:00 +14°C° 0 mm 1 m/S 756 mmHg 63%
    04:00 +13°C° 0 mm 1 m/S 757 mmHg 63%
    05:00 +13°C° 0 mm 1 m/S 757 mmHg 63%
    06:00 +13°C° 0 mm 1 m/S 757 mmHg 64%
    07:00 +14°C° 0 mm 1 m/S 757 mmHg 58%
    08:00 +16°C° 0 mm 1 m/S 758 mmHg 53%
    09:00 +18°C° 0 mm 1 m/S 758 mmHg 48%
    10:00 +19°C° 0 mm 1 m/S 758 mmHg 45%
    11:00 +20°C° 0 mm 1 m/S 757 mmHg 42%
    12:00 +20°C° 0 mm 2 m/S 757 mmHg 40%
    13:00 +20°C° 0 mm 2 m/S 757 mmHg 39%
    14:00 +20°C° 0 mm 2 m/S 756 mmHg 37%
    15:00 +20°C° 0 mm 2 m/S 756 mmHg 36%
    16:00 +20°C° 0 mm 1 m/S 756 mmHg 40%
    17:00 +19°C° 0 mm 1 m/S 756 mmHg 45%
    18:00 +16°C° 0 mm 0 m/S 757 mmHg 49%
    19:00 +16°C° 0 mm 1 m/S 757 mmHg 50%
    20:00 +16°C° 0 mm 1 m/S 757 mmHg 50%
    21:00 +16°C° 0 mm 1 m/S 757 mmHg 51%
    22:00 +15°C° 0 mm 1 m/S 757 mmHg 51%
    23:00 +15°C° 0 mm 1 m/S 757 mmHg 50%

    Morgen, 7 Dezember, Samstag

    Zeit Temperatur Niederschläge Wind Luftdruck Luftfeuchtigkeit
    00:00 +15°C° 0 mm 1 m/S 757 mmHg 50%
    01:00 +15°C° 0 mm 1 m/S 757 mmHg 49%
    02:00 +15°C° 0 mm 2 m/S 756 mmHg 47%
    03:00 +15°C° 0 mm 2 m/S 756 mmHg 46%
    04:00 +14°C° 0 mm 2 m/S 756 mmHg 46%
    05:00 +14°C° 0 mm 1 m/S 756 mmHg 46%
    06:00 +14°C° 0 mm 1 m/S 756 mmHg 45%
    07:00 +16°C° 0 mm 1 m/S 756 mmHg 41%
    08:00 +17°C° 0 mm 2 m/S 757 mmHg 37%
    09:00 +19°C° 0 mm 2 m/S 757 mmHg 32%
    10:00 +20°C° 0 mm 2 m/S 756 mmHg 29%
    11:00 +22°C° 0 mm 1 m/S 756 mmHg 26%
    12:00 +23°C° 0 mm 1 m/S 756 mmHg 24%
    13:00 +23°C° 0 mm 1 m/S 755 mmHg 25%
    14:00 +23°C° 0 mm 1 m/S 755 mmHg 26%
    15:00 +23°C° 0 mm 1 m/S 755 mmHg 27%
    16:00 +22°C° 0 mm 1 m/S 755 mmHg 30%
    17:00 +21°C° 0 mm 1 m/S 755 mmHg 34%
    18:00 +20°C° 0 mm 1 m/S 755 mmHg 38%
    19:00 +20°C° 0 mm 1 m/S 756 mmHg 39%
    20:00 +19°C° 0 mm 1 m/S 756 mmHg 40%
    21:00 +19°C° 0 mm 1 m/S 756 mmHg 41%
    22:00 +19°C° 0 mm 1 m/S 756 mmHg 43%
    23:00 +18°C° 0 mm 1 m/S 756 mmHg 45%

    übermorgen, 8 Dezember, Sonntag

    Zeit Temperatur Niederschläge Wind Luftdruck Luftfeuchtigkeit
    00:00 +16°C° 0 mm 1 m/S 756 mmHg 47%
    01:00 +16°C° 0 mm 2 m/S 756 mmHg 47%
    02:00 +16°C° 0 mm 2 m/S 756 mmHg 48%
    03:00 +16°C° 0 mm 2 m/S 756 mmHg 49%
    04:00 +15°C° 0 mm 2 m/S 756 mmHg 49%
    05:00 +14°C° 0 mm 3 m/S 756 mmHg 49%
    06:00 +14°C° 0 mm 3 m/S 756 mmHg 49%
    07:00 +16°C° 0 mm 3 m/S 756 mmHg 45%
    08:00 +18°C° 0 mm 3 m/S 757 mmHg 42%
    09:00 +19°C° 0 mm 4 m/S 757 mmHg 39%
    10:00 +20°C° 0 mm 4 m/S 757 mmHg 36%
    11:00 +21°C° 0 mm 4 m/S 757 mmHg 34%
    12:00 +22°C° 0 mm 4 m/S 757 mmHg 31%
    13:00 +22°C° 0 mm 4 m/S 757 mmHg 32%
    14:00 +22°C° 0 mm 4 m/S 756 mmHg 32%
    15:00 +22°C° 0 mm 3 m/S 756 mmHg 32%
    16:00 +21°C° 0 mm 3 m/S 757 mmHg 36%
    17:00 +19°C° 0 mm 2 m/S 757 mmHg 40%
    18:00 +18°C° 0 mm 2 m/S 757 mmHg 44%
    19:00 +18°C° 0 mm 2 m/S 757 mmHg 46%
    20:00 +17°C° 0 mm 2 m/S 758 mmHg 47%
    21:00 +17°C° 0 mm 2 m/S 758 mmHg 49%
    22:00 +16°C° 0 mm 2 m/S 758 mmHg 50%
    23:00 +16°C° 0 mm 2 m/S 758 mmHg 51%

    9 Dezember, Montag

    Zeit Temperatur Niederschläge Wind Luftdruck Luftfeuchtigkeit
    00:00 +16°C° 0 mm 3 m/S 758 mmHg 52%
    01:00 +14°C° 0 mm 3 m/S 758 mmHg 54%
    02:00 +14°C° 0 mm 3 m/S 758 mmHg 56%
    03:00 +14°C° 0 mm 4 m/S 758 mmHg 58%
    04:00 +13°C° 0 mm 4 m/S 758 mmHg 59%
    05:00 +13°C° 0 mm 4 m/S 758 mmHg 59%
    06:00 +13°C° 0 mm 4 m/S 758 mmHg 60%
    07:00 +14°C° 0 mm 4 m/S 758 mmHg 57%
    08:00 +16°C° 0 mm 3 m/S 758 mmHg 53%
    09:00 +17°C° 0 mm 3 m/S 759 mmHg 50%
    10:00 +18°C° 0 mm 3 m/S 758 mmHg 46%
    11:00 +18°C° 0 mm 3 m/S 758 mmHg 43%
    12:00 +19°C° 0 mm 3 m/S 758 mmHg 40%
    13:00 +20°C° 0 mm 4 m/S 757 mmHg 39%
    14:00 +20°C° 0 mm 5 m/S 757 mmHg 38%
    15:00 +20°C° 0 mm 5 m/S 757 mmHg 37%
    16:00 +19°C° 0 mm 5 m/S 757 mmHg 41%
    17:00 +18°C° 0 mm 4 m/S 757 mmHg 45%
    18:00 +17°C° 0 mm 4 m/S 758 mmHg 49%
    19:00 +17°C° 0 mm 4 m/S 758 mmHg 51%
    20:00 +17°C° 0 mm 3 m/S 758 mmHg 52%
    21:00 +16°C° 0 mm 3 m/S 759 mmHg 53%
    22:00 +15°C° 0 mm 4 m/S 759 mmHg 53%
    23:00 +15°C° 0 mm 4 m/S 759 mmHg 52%

    10 Dezember, Dienstag

    Zeit Temperatur Niederschläge Wind Luftdruck Luftfeuchtigkeit
    00:00 +14°C° 0 mm 5 m/S 758 mmHg 52%
    01:00 +14°C° 0 mm 5 m/S 758 mmHg 51%
    02:00 +14°C° 0 mm 6 m/S 758 mmHg 50%
    03:00 +13°C° 0 mm 6 m/S 758 mmHg 49%
    04:00 +13°C° 0 mm 5 m/S 758 mmHg 50%
    05:00 +13°C° 0 mm 5 m/S 758 mmHg 51%
    06:00 +12°C° 0 mm 5 m/S 758 mmHg 52%
    07:00 +13°C° 0 mm 5 m/S 759 mmHg 50%
    08:00 +14°C° 0 mm 4 m/S 759 mmHg 48%
    09:00 +15°C° 0 mm 4 m/S 759 mmHg 45%
    10:00 +16°C° 0 mm 5 m/S 759 mmHg 42%
    11:00 +17°C° 0 mm 5 m/S 758 mmHg 38%
    12:00 +19°C° 0 mm 6 m/S 758 mmHg 35%
    13:00 +19°C° 0 mm 6 m/S 757 mmHg 35%
    14:00 +19°C° 0 mm 6 m/S 757 mmHg 34%
    15:00 +20°C° 0 mm 7 m/S 757 mmHg 33%
    16:00 +18°C° 0 mm 7 m/S 757 mmHg 35%
    17:00 +17°C° 0 mm 7 m/S 757 mmHg 37%
    18:00 +16°C° 0 mm 7 m/S 757 mmHg 39%
    19:00 +15°C° 0 mm 6 m/S 757 mmHg 40%
    20:00 +15°C° 0 mm 6 m/S 758 mmHg 41%
    21:00 +15°C° 0 mm 6 m/S 758 mmHg 43%
    22:00 +14°C° 0 mm 5 m/S 758 mmHg 44%
    23:00 +13°C° 0 mm 4 m/S 758 mmHg 45%

    11 Dezember, Mittwoch

    Zeit Temperatur Niederschläge Wind Luftdruck Luftfeuchtigkeit
    00:00 +13°C° 0 mm 3 m/S 758 mmHg 45%
    01:00 +12°C° 0 mm 3 m/S 758 mmHg 46%
    02:00 +12°C° 0 mm 3 m/S 757 mmHg 46%
    03:00 +12°C° 0 mm 3 m/S 757 mmHg 46%
    04:00 +12°C° 0 mm 2 m/S 757 mmHg 46%
    05:00 +12°C° 0 mm 2 m/S 757 mmHg 46%
    06:00 +12°C° 0 mm 2 m/S 757 mmHg 46%
    07:00 +13°C° 0 mm 2 m/S 757 mmHg 44%
    08:00 +14°C° 0 mm 2 m/S 757 mmHg 42%
    09:00 +15°C° 0 mm 2 m/S 758 mmHg 39%
    10:00 +16°C° 0 mm 2 m/S 757 mmHg 38%
    11:00 +16°C° 0 mm 2 m/S 757 mmHg 37%
    12:00 +17°C° 0 mm 2 m/S 756 mmHg 35%
    13:00 +18°C° 0 mm 1 m/S 756 mmHg 34%
    14:00 +19°C° 0 mm 1 m/S 755 mmHg 33%
    15:00 +19°C° 0 mm 1 m/S 755 mmHg 32%
    16:00 +18°C° 0 mm 1 m/S 755 mmHg 37%
    17:00 +16°C° 0 mm 1 m/S 755 mmHg 41%
    18:00 +15°C° 0 mm 1 m/S 755 mmHg 46%
    19:00 +14°C° 0 mm 1 m/S 755 mmHg 48%
    20:00 +14°C° 0 mm 1 m/S 756 mmHg 50%
    21:00 +12°C° 0 mm 0 m/S 756 mmHg 52%
    22:00 +12°C° 0 mm 0 m/S 756 mmHg 53%
    23:00 +11°C° 0 mm 0 m/S 755 mmHg 55%
    Mehr zeigen